288  
ASUS43 KDTX 221710  
RWRMI  
MICHIGAN HOURLY REGIONAL WEATHER ROUNDUP  
NATIONAL WEATHER SERVICE DETROIT/PONTIAC MI  
1200 PM EST MON DEC 22 2014  
 
NOTE: "FAIR" INDICATES FEW OR NO CLOUDS BELOW 12,000 FEET WITH NO  
SIGNIFICANT WEATHER AND/OR TO VISIBILITY
.  
 
MIZ047>049-052>055-059>063-066>070-074>076-081>083-221800-  
SOUTHEAST LOWER MICHIGAN  
 
CITY SKY/WX TMP DP RH WIND PRES REMARKS
 
ADRIAN PTSUNNY 35 29 78 E13 29.99F  
ALMA SUNNY 34 28 80 SE8 30.03F HAZE  
ANN ARBOR MOSUNNY 35 28 75 E8 30.01F  
BAD AXE CLOUDY 33 27 79 SE5 30.08F  
DETROIT CITY SUNNY 38 29 70 E8 30.06F  
DETROIT PTSUNNY 35 29 78 E7 30.05F  
FLINT SUNNY 39 26 59 SE9 30.04F  
GROSSE ILE MOSUNNY 37 30 75 E7 30.03F  
HILLSDALE CLOUDY 34 29 81 SE9 29.95F  
HOWELL SUNNY 36 28 72 SE12 30.01F  
 
CITY SKY/WX TMP DP RH WIND PRES REMARKS
 
JACKSON MOSUNNY 34 28 79 E9 29.97F  
LAMBERTVILLE PTSUNNY 37 30 75 E10 30.00F  
LANSING MOSUNNY 35 26 69 SE14 29.99F  
LAPEER NOT AVBL  
MASON MOSUNNY 35 27 75 E7 29.98F  
MONROE MOSUNNY 36 30 80 E9 30.01F  
PONTIAC MOSUNNY 36 27 69 SE10 30.03F  
PORT HOPE N/A 33 25 72 SE7 30.07F  
PORT HURON MOSUNNY 36 30 80 SE6 30.08F  
TRI CITIES SUNNY 36 25 64 E6 30.05F  
YPSILANTI MOSUNNY 38 28 67 E8 30.04F  

 
MIZ043>046-050>051-056>058-064>065-071>073-077>080-221800-  
SOUTHWEST LOWER MICHIGAN  
 
CITY SKY/WX TMP DP RH WIND PRES REMARKS
 
BATTLE CREEK CLOUDY 35 26 69 E7 29.95F  
BENTON HARBOR CLOUDY 32 27 81 E12 29.91F HAZE  
BIG RAPIDS SUNNY 33 28 83 SE14 29.97F HAZE  
COLDWATER CLOUDY 34 28 77 MISG 29.95F  
HOLLAND CLOUDY 36 27 69 E14 29.94F  
GRAND RAPIDS PTSUNNY 35 27 72 E16 29.95F  
KALAMAZOO CLOUDY 35 27 72 SE8 29.95F  
MARSHALL CLOUDY 33 27 80 E7 29.95F  
MUSKEGON CLOUDY 36 26 67 E10 29.94F  

 
MIZ016>042-221800-  
NORTHERN LOWER MICHIGAN  
 
CITY SKY/WX TMP DP RH WIND PRES REMARKS
 
ALPENA CLOUDY 33 26 75 S10 30.08F  
BEAVER ISLAND CLOUDY 34 28 78 SE13 29.99F  
BELLAIRE MOSUNNY 33 25 73 SE7 30.00F  
CADILLAC SUNNY 30 24 77 SE12G17 29.96F  
CHARLEVOIX PTSUNNY 33 26 74 SE14 30.02F  
FRANKFORT MOSUNNY 36 26 68 SE9 29.95F  
GAYLORD CLOUDY 29 24 82 SE12 30.00F  
GRAYLING MOSUNNY 31 25 78 SE9 30.01F  
HARBOR SPRINGS CLOUDY 32 25 73 E8 30.03F  
HOUGHTON LAKE SUNNY 30 24 78 SE12 30.02F  
MANISTEE SUNNY 36 23 60 SE10G17 29.95F  
OSCODA CLOUDY 33 27 80 S7 30.09F  
PELLSTON CLOUDY 32 25 75 SE12 30.04F  
TRAVERSE CITY PTSUNNY 35 25 66 VRB6 29.98F  

 
MIZ007>008-015-221800-  
EASTERN UPPER MICHIGAN  
 
CITY SKY/WX TMP DP RH WIND PRES REMARKS
 
KINROSS CLOUDY 34 28 80 S13 30.04F  
MACKINAC ISLAN CLOUDY 32 26 78 SE13G18 30.03F  
NEWBERRY CLOUDY 31 27 86 SE14G20 29.99F  
S. S. MARIE CLOUDY 33 27 78 SE10G22 30.03F  

 
MIZ004>006-011>014-085-221800-  
CENTRAL UPPER MICHIGAN  
 
CITY SKY/WX TMP DP RH WIND PRES REMARKS
 
MANISTIQUE CLOUDY 34 31 88 SE9G18 29.97F  
ESCANABA CLOUDY 36 30 80 SE8 29.93F  
MENOMINEE CLOUDY 36 32 87 S12 29.89F  
SAWYER-GWINN FOG 32 32 100 S15 29.88F VSB 1  

 
MIZ001>003-009>011-084-221800-  
WESTERN UPPER MICHIGAN  
 
CITY SKY/WX TMP DP RH WIND PRES REMARKS
 
IRON MOUNTAIN CLOUDY 34 32 92 SE9 29.85F FOG  
HOUGHTON CLOUDY 34 32 92 SE9 29.82F FOG  
COPPER HARBOR N/A 37 33 85 VRB5 29.85F  
IRONWOOD CLOUDY 36 32 87 SE8 29.73F  

 
 
ABBREVIATIONS USED IN REMARKS  
TC - TEMPERATURE IN CELSIUS  
WCI - WIND CHILL INDEX  
HX - HEAT INDEX  
VSB - VISIBILITY  
 
CLICK HERE TO GO TO PREVIOUS BULLETINS.

The Nexlab MI Page Main Text Page